Weather in Marchuki-Pervye

Russia / Ryazan Oblast     53°37′24″N   40°11′04″E
temp.,
°C
wind,
m/s
gust,
m/s
humid.,
%
clouds,
%
prec.,
mm/h
press.,
hPa
HPBL,
m
3 march, wed
wed300:00−3nw4119596 0.1 1009288
03:00−3nw5129584 0.1 1011436
06:00−3nnw7139594 0.6 1012730
09:00−6nnw6139078 0.7 1015524
12:00−3nw6108762 0.0 1015739
15:00−2nw5108767 0.0 1016830
18:00−2w41092100 0.1 1015555
21:00−2w51290100 0.3 1015578
4 march, thu
thu400:00−2w61293100 0.1 1012683
03:00−3wsw6129099 0.1 1011421
06:00−2wsw71493100 0.0 1008534
09:00−1wsw81789100 0.3 1006696
12:000wsw81487100 0.0 1004789
15:00+1wsw71290100 0.0 1003897
18:00+1wsw61292100 0.0 1002666
21:00+1wsw51096100 0.1 1000447
5 march, fri
fri500:00+1w4898100 0.8 999309
03:000w51098100 1.4 999456
06:00−2nnw4697100 1.3 1001291
09:00−4n5993100 1.6 1004494
12:00−3n4691100 0.1 1007593
15:00−4nnw4588100 0.1 1009559
18:00−7nnw239232 0.0 101123
21:00−9n119354 0.0 101321
6 march, sat
sat600:00−10w119147 0.0 101321
03:00−9w229469 0.0 101423
06:00−11nw359347 0.0 101486
09:00−10nw379223 0.0 1015230
12:00−7nw359111 0.0 1016342
15:00−6nw348848 0.0 1016530
18:00−10nw239138 0.0 101621
21:00−11w229319 0.0 101721
7 march, sun
sun700:00−11wsw34932 0.0 101763
03:00−11sw489327 0.0 1015141
06:00−10sw6139042 0.0 1012354
09:00−7sw9178271 0.0 1009693
12:00−4sw111879100 0.0 10061081
15:00−3sw122084100 0.1 10021191
18:00−2sw112085100 0.4 9991132
21:00−2wsw101885100 0.4 9991068